User: anonymous   Login
Location: Caltech
(34.1382°N, 118.1253°W)
Time: 08:55:57
(UTC-07:00)
Language:

Iridium 62 - Orbit

View from above orbital plane
View from above orbital plane
View from above satellite
View from above satellite

Ground track
Ground track

The orbit data is extracted from the following two-line orbital elements,

1 25285U 98021A   18174.25791615  .00000162  00000-0  46295-4 0  9998
2 25285  86.4224  68.8307 0002068  88.4499 271.6936 14.38610522 58212
Epoch (UTC): 23 June 2018 06:11:23
Eccentricity: 0.0002068
inclination: 86.4224°
perigee height: 761 km
apogee height: 764 km
right ascension of ascending node: 68.8307°
argument of perigee: 88.4499°
revolutions per day: 14.38610522
mean anomaly at epoch: 271.6936°
orbit number at epoch: 5821

The dashed part of the orbit path shows where the satellite is in the earth's shadow,  

DLR